Temp
14 14 15 15 16 16 16 17 17 18 18 19 19 19 20 20 21 21 22 24 23 22 22 22 20 20 18 18 18 18 18 18 21 21 23 23 22 22 22 20 21 20 19 19 17
14 14 14 15 15 16 16 16 17 17 18 18 19 19 19 20 21 22 24 24 23 23 21 21 19 18 19 18 18 18 17 20 22 23 22 24 23 22 21 21 20 19 19 18 17
13 13 13 14 14 15 15 16 16 17 17 18 18 18 19 19 20 25 24 24 24 23 23 23 21 19 19 18 18 18 19 22 24 25 25 24 23 23 21 20 20 18 19 17 17
11 12 12 13 14 14 15 15 16 16 17 18 18 18 18 18 20 24 24 25 24 22 21 21 19 19 18 18 19 19 20 21 24 26 24 23 23 23 22 23 23 22 21 18 18
11 11 12 12 13 14 14 15 15 16 17 18 18 18 18 18 21 24 24 24 23 21 21 21 18 19 18 19 19 19 21 23 24 26 25 24 24 23 22 23 23 20 19 19 18
10 11 11 12 13 13 14 15 15 17 17 18 18 18 17 14 23 23 23 23 23 20 20 20 20 21 22 22 21 23 22 23 25 26 26 24 24 24 23 22 21 19 18 18 19
10 11 11 12 13 13 15 15 16 17 18 18 18 18 16 21 23 23 23 24 24 22 20 21 22 21 23 23 24 25 22 23 24 25 25 25 23 23 23 22 20 19 18 18 19
10 11 12 13 13 14 15 16 17 18 19 19 19 18 17 23 21 22 22 21 23 23 22 22 22 23 22 23 24 23 22 22 24 25 25 25 22 24 23 21 20 19 18 19 18
11 12 13 13 13 14 14 16 17 18 18 18 17 17 18 21 22 23 22 21 22 22 22 22 22 22 23 21 19 19 21 21 24 25 26 24 23 23 23 22 20 20 19 19 19
10 10 12 13 13 14 15 15 15 15 15 15 13 14 20 22 22 22 23 21 20 20 19 20 21 18 17 18 19 20 21 22 24 27 24 23 23 23 22 22 21 20 20 19 19
10 10 11 13 13 13 15 15 14 13 13 14 15 16 19 22 22 22 22 20 21 20 17 20 17 17 19 19 21 22 23 23 24 25 24 23 23 21 22 22 21 21 20 20 20
10 10 10 13 13 13 13 12 8 7 6 16 18 16 20 19 20 21 22 21 20 18 18 17 19 19 20 20 21 22 23 22 23 24 25 24 23 21 22 22 22 21 21 21 20
10 10 10 11 13 13 11 11 10 9 6 13 15 16 17 19 17 21 21 22 19 18 19 20 19 20 20 20 21 20 21 22 23 24 24 23 22 21 22 23 22 22 21 21 21
9 9 9 10 11 11 11 11 11 11 9 14 15 17 17 18 16 22 22 23 20 21 17 19 21 21 19 20 21 18 21 23 23 24 22 23 20 20 22 22 22 22 22 22 22
8 8 8 8 8 10 10 11 12 11 14 20 17 19 18 19 21 18 22 23 20 20 19 20 20 20 21 22 21 21 23 23 24 21 22 23 20 21 21 21 22 23 23 23 22
8 8 7 7 9 9 11 12 12 12 13 18 19 18 18 19 20 20 21 23 23 21 22 21 22 22 21 22 22 22 22 19 18 18 19 21 20 20 20 22 23 23 23 23 23
8 7 7 7 6 8 10 12 10 11 16 16 15 15 16 17 20 19 18 20 20 18 19 21 22 22 23 22 21 22 19 17 18 17 21 20 20 25 22 24 24 24 24 24 23
7 7 7 7 7 8 9 8 9 14 13 14 14 15 16 14 15 15 18 20 20 21 20 18 19 21 21 21 21 20 19 15 17 16 22 18 20 22 25 25 26 26 25 25 24
7 8 7 7 7 7 8 6 8 11 12 12 13 13 13 14 14 15 15 19 21 19 20 17 19 22 22 22 23 19 19 19 17 18 17 18 20 24 24 24 24 26 26 26 25
5 6 6 6 7 7 4 5 7 10 11 11 11 12 11 12 13 12 14 13 14 16 16 20 20 20 23 23 23 20 20 20 15 19 19 18 20 21 22 23 23 23 24 26 27
4 4 6 6 6 6 3 3 7 10 10 10 10 10 10 11 11 12 13 13 13 13 14 12 18 21 20 21 22 19 19 19 19 15 19 17 19 19 22 23 26 27 27 27 27
2 0 5 6 3 2 5 5 6 7 9 9 10 10 10 10 11 12 12 11 12 12 11 12 12 18 20 22 23 24 22 17 20 18 16 17 20 22 23 24 22 25 28 28 29
2 2 5 5 1 1 2 6 7 5 6 8 9 9 9 9 9 10 11 12 12 12 11 11 11 15 19 21 21 21 21 19 18 16 22 19 21 24 22 24 27 25 28 29 31
2 -0 4 4 3 2 1 3 5 5 7 6 8 8 7 7 7 8 9 12 11 12 13 11 9 12 15 16 16 17 21 20 22 20 22 23 22 25 24 22 22 27 30 29 32
2 1 1 -0 2 1 1 3 5 4 5 5 5 5 6 6 7 7 9 8 10 10 10 8 10 11 12 13 15 16 17 19 21 22 21 23 21 22 22 23 25 28 28 29 31
2 2 1 1 2 3 3 3 4 4 4 4 4 4 6 5 7 6 6 6 7 7 8 6 10 9 11 15 16 17 18 20 20 21 22 23 21 22 24 25 24 27 28 29 31
2 1 1 1 3 2 3 3 4 4 5 5 4 4 6 6 7 7 7 7 7 7 6 6 7 9 10 13 13 16 19 20 20 21 22 21 22 23 22 21 22 28 30 29 31
Height
1517 1514 1511 1508 1505 1503 1500 1498 1497 1495 1493 1492 1491 1490 1488 1486 1486 1483 1479 1481 1484 1487 1488 1490 1495 1498 1503 1506 1508 1510 1516 1517 1505 1504 1495 1494 1499 1503 1505 1507 1510 1512 1512 1515 1522
1515 1512 1508 1505 1502 1500 1497 1495 1492 1491 1490 1488 1487 1486 1484 1482 1480 1476 1473 1473 1478 1482 1485 1486 1491 1496 1502 1504 1506 1507 1513 1503 1491 1490 1492 1493 1497 1502 1506 1507 1509 1511 1514 1519 1523
1513 1509 1506 1503 1499 1496 1494 1491 1489 1486 1485 1484 1483 1482 1481 1479 1476 1469 1468 1468 1470 1477 1484 1489 1492 1496 1500 1502 1503 1503 1503 1492 1489 1489 1488 1492 1497 1501 1504 1508 1502 1504 1511 1519 1523
1510 1507 1504 1500 1497 1493 1490 1487 1484 1482 1481 1480 1480 1478 1477 1478 1479 1466 1467 1465 1468 1474 1482 1486 1491 1495 1497 1499 1498 1502 1491 1492 1489 1488 1489 1491 1494 1498 1502 1500 1501 1503 1507 1515 1521
1508 1505 1501 1497 1493 1489 1486 1482 1479 1478 1476 1475 1475 1475 1474 1473 1462 1465 1466 1466 1469 1473 1477 1480 1486 1490 1493 1493 1496 1496 1489 1489 1488 1486 1487 1490 1490 1495 1498 1499 1501 1508 1512 1514 1521
1506 1502 1498 1493 1489 1485 1481 1476 1473 1471 1470 1470 1470 1470 1470 1470 1459 1460 1461 1463 1467 1471 1475 1479 1480 1486 1487 1488 1489 1485 1486 1486 1487 1486 1489 1490 1492 1495 1498 1500 1505 1510 1513 1516 1519
1504 1499 1494 1490 1485 1480 1475 1470 1465 1463 1463 1464 1464 1464 1463 1453 1456 1456 1456 1459 1464 1466 1472 1476 1480 1485 1485 1486 1484 1484 1486 1481 1480 1482 1486 1490 1497 1492 1496 1501 1503 1510 1515 1518 1520
1501 1496 1491 1486 1481 1474 1468 1462 1458 1457 1456 1457 1458 1459 1453 1447 1448 1453 1455 1458 1464 1469 1473 1477 1482 1482 1484 1484 1483 1485 1487 1497 1475 1476 1481 1486 1496 1487 1493 1498 1501 1507 1514 1517 1519
1499 1493 1488 1482 1476 1469 1463 1457 1453 1452 1451 1452 1454 1455 1447 1442 1442 1447 1454 1455 1461 1469 1474 1479 1482 1482 1483 1488 1497 1493 1502 1496 1485 1471 1476 1481 1487 1480 1486 1492 1499 1503 1510 1514 1517
1497 1491 1486 1479 1474 1468 1462 1456 1453 1452 1450 1450 1451 1456 1441 1438 1439 1442 1447 1456 1460 1467 1475 1478 1478 1482 1483 1490 1501 1500 1495 1490 1487 1472 1475 1481 1478 1476 1480 1486 1492 1497 1506 1510 1512
1495 1489 1483 1478 1472 1468 1461 1457 1458 1454 1451 1445 1443 1437 1433 1436 1437 1439 1442 1451 1458 1463 1468 1469 1480 1480 1477 1479 1481 1483 1483 1484 1477 1470 1475 1478 1479 1478 1479 1486 1490 1493 1499 1504 1503
1494 1488 1480 1477 1470 1468 1464 1462 1469 1470 1451 1437 1432 1430 1430 1431 1435 1435 1438 1444 1449 1455 1458 1471 1465 1468 1471 1475 1478 1480 1483 1484 1476 1469 1472 1474 1476 1476 1477 1474 1478 1484 1492 1495 1502
1492 1487 1479 1473 1469 1468 1466 1465 1466 1462 1458 1423 1418 1417 1418 1426 1427 1426 1430 1433 1437 1448 1448 1452 1454 1461 1467 1472 1477 1480 1481 1483 1481 1470 1469 1474 1483 1480 1477 1479 1482 1485 1488 1493 1495
1491 1485 1478 1470 1470 1465 1466 1464 1463 1458 1459 1426 1415 1411 1413 1416 1419 1416 1422 1427 1432 1438 1449 1455 1448 1451 1462 1465 1467 1487 1470 1475 1478 1483 1500 1472 1505 1481 1470 1473 1475 1478 1482 1483 1488
1489 1484 1478 1473 1469 1467 1465 1462 1460 1459 1467 1411 1411 1411 1411 1411 1408 1407 1414 1421 1425 1427 1438 1441 1443 1451 1454 1451 1459 1467 1462 1470 1473 1484 1484 1480 1496 1475 1466 1473 1468 1468 1470 1474 1478
1487 1482 1475 1471 1467 1465 1459 1459 1459 1466 1461 1413 1409 1412 1414 1409 1405 1405 1410 1417 1420 1427 1428 1434 1433 1439 1442 1445 1450 1455 1465 1474 1482 1490 1502 1479 1488 1478 1469 1457 1458 1458 1460 1465 1470
1485 1480 1475 1469 1466 1461 1457 1457 1466 1465 1419 1423 1420 1417 1417 1412 1405 1405 1411 1413 1418 1439 1440 1433 1433 1429 1431 1446 1447 1453 1473 1504 1506 1509 1481 1470 1483 1449 1441 1437 1438 1444 1447 1453 1458
1483 1477 1472 1469 1466 1461 1458 1460 1465 1434 1432 1427 1423 1418 1417 1418 1415 1410 1408 1414 1410 1414 1428 1444 1450 1428 1424 1430 1442 1450 1463 1495 1511 1508 1472 1474 1469 1446 1428 1431 1434 1434 1437 1444 1451
1480 1475 1472 1470 1466 1463 1461 1467 1453 1445 1442 1436 1426 1425 1427 1421 1422 1415 1417 1411 1408 1409 1425 1439 1434 1410 1413 1418 1426 1450 1461 1452 1478 1479 1489 1472 1448 1428 1423 1426 1428 1429 1434 1436 1439
1481 1475 1472 1469 1465 1463 1466 1466 1455 1448 1445 1440 1440 1434 1436 1432 1427 1427 1423 1430 1421 1415 1414 1413 1429 1410 1408 1415 1420 1430 1436 1464 1480 1486 1491 1470 1456 1446 1429 1424 1422 1425 1425 1424 1428
1482 1476 1474 1469 1464 1464 1472 1470 1457 1451 1449 1447 1443 1442 1439 1438 1434 1431 1430 1432 1427 1421 1417 1421 1419 1414 1410 1413 1416 1432 1439 1442 1447 1469 1472 1482 1456 1421 1417 1411 1409 1409 1411 1412 1417
1484 1483 1475 1469 1471 1473 1470 1470 1463 1455 1451 1448 1443 1442 1442 1440 1437 1433 1435 1436 1435 1429 1432 1430 1434 1427 1415 1400 1399 1403 1414 1434 1445 1463 1461 1461 1439 1402 1398 1397 1402 1402 1400 1404 1409
1486 1483 1478 1474 1482 1481 1474 1467 1465 1463 1458 1452 1447 1445 1444 1444 1445 1440 1438 1438 1436 1433 1437 1433 1438 1436 1423 1410 1402 1409 1410 1417 1426 1436 1428 1454 1430 1396 1397 1398 1397 1399 1399 1399 1401
1489 1488 1481 1479 1482 1482 1480 1472 1465 1463 1460 1459 1452 1447 1448 1448 1447 1447 1442 1438 1439 1437 1436 1433 1442 1442 1438 1432 1429 1423 1405 1407 1410 1426 1419 1408 1417 1403 1400 1400 1395 1393 1393 1395 1398
1493 1491 1490 1488 1482 1483 1482 1474 1468 1466 1464 1461 1458 1459 1457 1455 1452 1449 1445 1444 1441 1440 1438 1440 1444 1440 1437 1429 1425 1420 1415 1408 1403 1402 1413 1408 1411 1406 1399 1395 1391 1384 1389 1391 1392
1495 1493 1490 1487 1484 1481 1478 1473 1469 1468 1467 1463 1462 1462 1458 1457 1454 1456 1453 1451 1448 1443 1442 1445 1444 1442 1438 1421 1411 1411 1404 1398 1400 1399 1398 1398 1399 1386 1384 1384 1384 1382 1383 1383 1385
1493 1492 1489 1485 1482 1481 1476 1473 1470 1469 1463 1461 1461 1463 1457 1453 1451 1449 1449 1447 1446 1448 1450 1450 1446 1442 1440 1425 1422 1410 1388 1390 1389 1387 1388 1392 1389 1381 1378 1377 1378 1378 1379 1380 1381
Wind_Speed
18 18 18 18 18 17 18 18 18 18 18 17 17 17 18 19 18 22 27 20 15 12 16 26 24 20 24 15 8 7 2 4 3 5 3 16 5 10 7 17 5 4 14 28 37
20 20 20 19 19 18 18 19 19 18 18 18 17 17 18 20 22 26 21 20 19 25 26 29 29 28 11 10 6 4 3 6 5 5 5 18 12 14 5 16 4 12 18 35 37
20 20 21 21 21 21 20 19 19 19 17 17 17 17 16 17 20 4 1 4 20 25 26 22 24 24 7 8 8 6 5 3 4 8 15 20 13 12 12 5 13 28 37 39 39
22 22 22 22 22 22 21 22 21 20 19 18 16 17 16 12 5 3 2 3 17 27 28 26 30 11 6 6 12 3 14 12 9 5 18 14 17 7 22 4 17 26 45 44 40
25 24 23 23 23 23 23 23 23 20 19 18 17 17 15 10 27 10 8 7 16 31 33 34 33 12 7 8 10 6 5 8 11 9 20 19 20 11 24 4 16 35 42 43 41
28 28 28 27 26 25 24 24 23 21 19 18 18 16 14 7 11 8 21 22 13 36 35 34 27 23 4 5 10 9 11 14 9 9 10 16 10 11 15 12 27 36 40 40 41
30 30 31 30 30 30 27 24 23 21 20 19 18 18 19 28 11 9 13 18 13 37 39 36 18 21 5 3 13 13 7 6 6 8 7 12 4 12 11 23 33 32 34 37 38
32 32 32 32 32 34 27 23 21 17 18 15 13 17 13 9 21 23 12 19 17 30 34 32 27 24 17 4 5 2 4 0 7 6 9 16 13 16 23 30 30 31 30 36 36
31 32 33 33 33 30 26 22 14 11 10 6 8 11 9 10 19 20 29 25 26 27 29 12 29 10 9 3 5 4 4 5 6 7 4 12 7 12 34 33 29 32 32 32 37
32 33 32 32 31 24 25 13 7 6 2 3 5 5 14 5 5 8 26 32 25 26 22 16 8 5 1 5 10 5 4 4 5 3 7 8 11 11 33 33 33 34 32 33 38
32 33 34 30 31 21 22 6 7 2 6 10 4 7 3 10 6 8 16 29 21 25 8 11 5 11 13 8 4 6 4 6 4 3 5 9 5 9 25 25 25 30 33 34 42
33 34 36 29 29 18 12 11 13 13 16 21 29 38 31 9 4 13 16 20 12 7 8 5 19 11 9 8 8 6 3 5 5 7 3 5 9 8 16 27 34 34 34 38 34
33 33 35 33 19 19 5 16 21 19 6 17 19 19 21 30 19 23 24 18 7 9 18 17 6 12 10 6 12 6 12 5 5 6 2 5 4 8 10 8 20 26 32 34 37
33 33 34 35 11 28 5 15 23 11 3 7 5 5 11 12 8 42 30 24 6 20 9 6 8 20 10 12 11 9 7 6 8 1 4 5 5 5 13 19 17 25 33 37 38
33 33 32 33 32 24 15 18 18 1 6 0 2 6 12 11 1 12 37 22 10 8 9 11 14 13 19 15 10 8 7 9 6 5 1 3 1 6 11 13 19 24 34 38 43
34 31 36 31 24 21 22 15 3 3 9 3 4 3 4 7 4 5 16 12 10 6 1 8 5 12 10 8 12 9 6 6 5 4 7 10 8 5 8 20 20 25 35 38 40
33 31 33 17 22 20 17 7 2 5 6 5 4 5 4 5 2 4 9 13 11 8 9 5 11 4 7 8 5 8 6 1 1 2 11 10 7 15 11 18 24 26 41 42 45
34 32 16 15 21 21 8 3 5 2 3 4 5 8 2 8 4 6 8 17 5 5 8 8 6 16 6 10 11 9 10 6 7 5 11 6 10 8 13 18 29 34 42 40 40
33 28 15 17 22 19 6 2 4 3 7 9 8 4 5 5 5 5 4 6 8 4 7 7 9 4 10 6 16 6 9 10 5 2 2 5 6 6 5 12 15 28 30 35 41
32 23 19 21 22 8 4 4 4 5 12 6 4 6 5 7 6 7 6 8 11 7 6 3 2 7 18 6 12 10 11 4 1 6 6 5 4 6 10 12 14 9 25 36 40
24 11 16 23 9 4 2 5 6 15 14 4 5 6 4 4 4 5 5 7 12 10 7 6 3 3 8 11 16 4 5 3 6 6 6 1 6 8 10 15 19 19 29 36 39
13 4 18 17 8 3 3 8 13 12 13 5 3 4 3 5 3 4 5 4 14 9 5 2 1 6 7 2 14 20 14 7 8 7 5 4 8 4 10 11 11 15 31 34 35
17 6 10 16 4 4 6 6 5 7 8 6 4 4 3 4 4 4 5 6 20 9 5 5 2 2 4 8 3 5 10 7 4 2 18 7 6 8 6 7 15 18 24 22 23
8 4 7 7 4 4 5 5 8 13 5 9 9 6 6 5 5 4 4 5 13 6 9 2 1 3 3 3 3 6 8 9 15 11 13 20 3 4 8 10 10 22 25 29 27
5 2 3 4 5 8 4 4 7 7 5 7 4 12 9 3 4 2 4 5 6 8 5 3 0 2 4 11 8 12 16 14 20 21 13 10 15 10 9 10 18 34 26 21 22
4 3 3 7 10 6 4 3 4 6 2 5 4 12 12 3 2 4 4 1 5 5 5 5 3 2 4 10 14 13 14 17 14 12 17 12 9 9 18 21 14 19 21 24 23
5 9 5 6 4 4 2 3 7 9 8 9 5 10 10 6 9 12 16 19 12 1 3 3 2 2 4 6 9 12 13 13 10 10 12 17 11 7 9 10 16 30 33 30 33
Wind_Direction
336 333 329 326 323 319 316 312 308 304 302 301 300 297 295 294 290 283 269 271 251 211 180 166 171 175 165 172 175 158 146 217 239 182 225 149 120 148 141 142 140 169 163 166 161
337 335 331 325 320 316 313 311 309 305 301 300 298 297 296 298 296 288 288 257 235 202 176 177 169 167 164 181 186 163 164 233 219 201 168 162 142 152 127 156 106 118 149 158 161
336 332 330 327 323 318 313 307 304 302 299 295 295 295 297 301 307 278 341 238 204 202 201 184 173 157 154 171 189 188 219 223 287 248 177 166 152 162 146 222 187 156 156 162 167
343 341 335 328 323 319 315 308 301 297 297 295 292 292 293 290 269 194 44 41 193 188 185 178 171 171 176 184 189 200 241 248 297 303 161 173 166 174 179 235 206 177 167 167 173
352 349 343 337 327 318 314 309 301 293 289 288 287 286 285 255 248 243 233 315 184 183 186 179 175 180 179 186 157 230 244 254 251 294 177 167 184 178 198 350 181 167 169 173 179
352 350 349 345 338 329 318 308 302 289 280 277 278 273 260 237 274 241 239 246 219 185 189 186 190 181 190 199 188 207 240 245 259 239 197 178 183 174 209 165 163 169 173 180 183
350 349 347 347 343 336 326 311 297 283 279 274 267 256 244 249 247 234 220 210 206 187 187 195 199 190 220 257 240 252 298 343 203 225 214 179 144 212 183 174 164 173 180 186 191
347 346 345 345 344 339 332 314 298 283 283 278 257 230 241 259 225 220 177 175 182 187 192 197 204 221 221 317 353 168 104 85 292 192 206 160 223 213 185 167 171 176 188 193 197
345 343 345 345 347 347 346 330 312 293 289 270 212 195 251 240 231 218 206 177 175 191 193 206 217 225 213 141 347 338 187 205 314 208 131 175 230 205 180 177 174 181 193 198 200
346 344 347 344 347 353 351 343 346 319 285 254 213 225 232 215 161 177 203 197 176 188 204 203 180 177 242 162 211 213 195 206 202 261 178 203 235 177 177 177 182 182 193 199 204
349 346 344 346 343 350 356 344 340 291 303 233 238 258 171 173 199 210 192 174 188 177 167 179 170 212 205 210 180 206 217 197 210 215 172 215 221 191 178 185 184 183 193 203 210
351 348 342 350 340 5 40 61 34 331 300 278 257 249 240 230 302 189 190 162 169 175 136 119 219 199 181 197 181 218 221 257 288 257 173 190 223 184 184 193 189 187 195 204 210
352 351 343 343 341 356 11 13 354 330 251 287 247 248 246 231 226 219 188 182 151 151 189 198 218 171 192 181 200 206 212 202 221 349 87 92 309 158 212 210 196 204 205 209 209
352 353 345 341 345 340 330 335 341 320 324 272 243 246 180 173 230 224 206 181 171 194 134 215 223 186 174 202 177 215 166 170 219 153 234 155 255 229 196 202 200 204 204 210 213
348 349 344 346 335 341 319 314 333 150 325 301 175 160 174 195 278 211 198 197 177 168 144 208 186 184 205 198 168 209 161 181 178 188 292 216 70 261 175 205 211 207 212 212 213
345 344 343 345 337 333 309 314 328 57 248 340 66 30 131 235 278 79 181 197 173 125 338 188 189 181 185 172 177 156 104 50 54 105 245 218 182 228 189 208 213 215 220 216 212
343 340 345 358 353 335 319 323 70 192 335 5 341 7 324 307 230 141 188 192 168 145 188 188 214 206 156 168 160 155 114 305 237 186 240 186 203 233 213 205 206 206 219 218 216
342 342 354 23 2 357 338 60 218 279 355 349 335 301 100 3 357 330 141 194 212 117 164 174 216 205 185 190 191 191 166 155 197 211 240 130 227 235 200 217 219 215 221 221 217
341 351 23 356 347 353 348 156 225 351 356 330 316 50 358 357 357 341 10 210 204 188 165 168 238 211 171 168 165 204 187 180 83 261 35 227 299 308 199 205 204 221 224 225 222
342 345 5 348 336 340 61 274 287 357 355 341 2 27 10 341 25 19 15 349 342 357 2 228 210 205 209 138 190 156 158 156 110 197 233 278 254 223 194 208 214 207 211 226 224
347 339 358 346 3 53 124 267 301 328 341 330 352 323 8 357 344 346 336 54 6 336 17 10 120 315 117 199 188 130 176 166 165 160 204 297 253 209 210 219 210 223 223 225 227
353 341 356 5 47 18 342 310 313 336 351 319 306 49 38 357 336 344 43 43 9 331 12 13 84 224 199 242 215 207 199 154 182 223 238 168 242 237 232 203 204 229 235 238 242
337 302 8 20 55 341 310 307 344 330 328 332 327 22 349 10 356 23 9 58 13 12 22 328 342 81 26 298 130 194 208 172 138 92 223 189 249 222 222 235 242 231 247 247 253
347 348 342 40 45 17 330 299 356 341 340 342 328 41 23 9 19 335 329 18 343 349 12 39 71 105 245 289 315 300 229 201 201 218 227 236 264 236 241 248 251 239 247 248 246
357 331 343 316 344 328 301 275 321 359 322 11 356 19 354 327 335 326 339 344 319 10 19 79 332 309 259 282 262 250 264 268 225 226 220 226 226 227 235 228 243 248 242 245 262
308 318 293 282 303 287 299 295 310 351 303 330 356 340 331 273 259 283 336 298 252 337 18 348 251 60 278 269 278 272 260 254 250 262 243 235 245 209 218 229 249 242 237 236 243
303 281 260 268 290 289 254 271 310 345 288 228 290 325 300 293 304 278 273 256 243 235 352 311 211 114 258 295 314 285 249 251 243 220 221 229 226 228 242 224 226 241 244 243 246